TimeAKST,TemperatureF,Dew PointF,Humidity,Sea Level PressureIn,VisibilityMPH,Wind Direction,Wind SpeedMPH,Gust SpeedMPH,PrecipitationIn,Events,Conditions,WindDirDegrees,DateUTC
12:16 AM,35.6,30.2,81,30.32,4.0,Calm,Calm,-,N/A,,Overcast,0,2013-01-16 09:16:00
12:36 AM,35.6,32.0,87,30.32,3.0,SE,3.5,-,N/A,,Overcast,140,2013-01-16 09:36:00
12:56 AM,35.6,33.8,93,30.33,3.0,Calm,Calm,-,N/A,,Overcast,0,2013-01-16 09:56:00
1:16 AM,35.6,33.8,93,30.33,8.0,East,3.5,-,N/A,,Overcast,80,2013-01-16 10:16:00
1:36 AM,37.4,33.8,87,30.33,9.0,East,4.6,-,N/A,,Overcast,100,2013-01-16 10:36:00
1:56 AM,37.4,35.6,93,30.33,10.0,East,3.5,-,N/A,,Overcast,100,2013-01-16 10:56:00
2:16 AM,37.4,35.6,93,30.33,10.0,East,5.8,-,N/A,,Overcast,100,2013-01-16 11:16:00
3:16 AM,37.4,35.6,93,30.34,10.0,SE,4.6,-,N/A,,Overcast,140,2013-01-16 12:16:00
3:36 AM,37.4,35.6,93,30.34,10.0,ESE,5.8,-,N/A,,Overcast,120,2013-01-16 12:36:00
3:56 AM,37.4,35.6,93,30.34,10.0,ESE,6.9,-,N/A,,Overcast,120,2013-01-16 12:56:00
4:16 AM,37.4,35.6,93,30.33,5.0,ESE,9.2,-,N/A,,Overcast,110,2013-01-16 13:16:00
4:36 AM,37.4,35.6,93,30.32,10.0,ESE,6.9,-,N/A,,Overcast,110,2013-01-16 13:36:00
4:56 AM,37.4,35.6,93,30.32,10.0,East,3.5,-,N/A,,Overcast,90,2013-01-16 13:56:00
5:16 AM,37.4,35.6,93,30.32,10.0,East,3.5,-,N/A,,Overcast,100,2013-01-16 14:16:00
5:36 AM,37.4,35.6,93,30.32,10.0,ESE,3.5,-,N/A,,Overcast,110,2013-01-16 14:36:00
5:56 AM,37.4,33.8,87,30.31,10.0,ESE,4.6,-,N/A,,Mostly Cloudy,110,2013-01-16 14:56:00
6:16 AM,37.4,35.6,93,30.31,10.0,East,5.8,-,N/A,,Overcast,100,2013-01-16 15:16:00
6:36 AM,37.4,33.8,87,30.30,10.0,East,3.5,-,N/A,,Overcast,90,2013-01-16 15:36:00
6:56 AM,37.4,33.8,87,30.30,10.0,ESE,5.8,-,N/A,,Overcast,110,2013-01-16 15:56:00
7:16 AM,37.4,33.8,87,30.30,10.0,East,3.5,-,N/A,,Overcast,90,2013-01-16 16:16:00
7:36 AM,37.4,33.8,87,30.29,10.0,Calm,Calm,-,N/A,,Overcast,0,2013-01-16 16:36:00
7:56 AM,37.4,33.8,87,30.29,10.0,ESE,4.6,-,N/A,,Overcast,120,2013-01-16 16:56:00
8:16 AM,37.4,33.8,87,30.28,10.0,Calm,Calm,-,N/A,,Overcast,0,2013-01-16 17:16:00
8:36 AM,35.6,30.2,81,30.28,10.0,Calm,Calm,-,N/A,,Mostly Cloudy,0,2013-01-16 17:36:00
8:56 AM,35.6,30.2,81,30.27,10.0,Calm,Calm,-,N/A,,Mostly Cloudy,0,2013-01-16 17:56:00
9:16 AM,35.6,32.0,87,30.27,1.5,Calm,Calm,-,N/A,,Overcast,0,2013-01-16 18:16:00
9:36 AM,33.8,30.2,87,30.26,1.2,North,3.5,-,N/A,,Overcast,350,2013-01-16 18:36:00
9:56 AM,33.8,30.2,87,30.26,10.0,Calm,Calm,-,N/A,,Overcast,0,2013-01-16 18:56:00
10:16 AM,35.6,30.2,81,30.25,10.0,Calm,Calm,-,N/A,,Overcast,0,2013-01-16 19:16:00
10:36 AM,37.4,33.8,87,30.25,10.0,SSE,9.2,-,N/A,,Overcast,150,2013-01-16 19:36:00
10:56 AM,37.4,33.8,87,30.24,10.0,SSE,5.8,-,N/A,,Overcast,160,2013-01-16 19:56:00
11:16 AM,37.4,32.0,81,30.22,9.0,SE,6.9,-,N/A,,Overcast,130,2013-01-16 20:16:00
11:36 AM,37.4,32.0,81,30.21,8.0,ESE,6.9,-,N/A,,Overcast,120,2013-01-16 20:36:00
11:56 AM,37.4,32.0,81,30.19,10.0,ESE,3.5,-,N/A,,Overcast,120,2013-01-16 20:56:00
12:16 PM,37.4,33.8,87,30.18,10.0,Calm,Calm,-,N/A,,Overcast,0,2013-01-16 21:16:00
12:36 PM,35.6,32.0,87,30.17,10.0,Calm,Calm,-,N/A,,Overcast,0,2013-01-16 21:36:00
12:56 PM,35.6,32.0,87,30.16,10.0,Calm,Calm,-,N/A,,Overcast,0,2013-01-16 21:56:00
1:16 PM,35.6,32.0,87,30.13,10.0,NE,3.5,-,N/A,,Overcast,40,2013-01-16 22:16:00
1:36 PM,35.6,32.0,87,30.11,10.0,NE,3.5,-,N/A,,Mostly Cloudy,50,2013-01-16 22:36:00
1:56 PM,35.6,32.0,87,30.09,10.0,Calm,Calm,-,N/A,,Overcast,0,2013-01-16 22:56:00
2:16 PM,35.6,32.0,87,30.07,10.0,Calm,Calm,-,N/A,,Overcast,0,2013-01-16 23:16:00
2:36 PM,35.6,32.0,87,30.05,10.0,Calm,Calm,-,N/A,,Overcast,0,2013-01-16 23:36:00
2:56 PM,35.6,32.0,87,30.04,10.0,NNW,3.5,-,N/A,,Overcast,330,2013-01-16 23:56:00
3:16 PM,35.6,32.0,87,30.03,10.0,NNW,4.6,-,N/A,,Overcast,340,2013-01-17 00:16:00
3:36 PM,35.6,32.0,87,30.00,10.0,NNW,3.5,-,N/A,,Overcast,340,2013-01-17 00:36:00
3:56 PM,35.6,30.2,81,29.98,10.0,NW,4.6,-,N/A,,Overcast,320,2013-01-17 00:56:00
4:16 PM,35.6,30.2,81,29.96,10.0,WNW,3.5,-,N/A,,Overcast,300,2013-01-17 01:16:00
4:56 PM,35.6,30.2,81,29.94,4.0,Calm,Calm,-,N/A,,Overcast,0,2013-01-17 01:56:00
5:16 PM,33.8,30.2,87,29.93,4.0,NNW,4.6,-,N/A,,Overcast,340,2013-01-17 02:16:00
5:36 PM,33.8,30.2,87,29.91,2.5,Calm,Calm,-,N/A,,Overcast,0,2013-01-17 02:36:00
5:56 PM,33.8,30.2,87,29.89,3.0,North,3.5,-,N/A,,Overcast,350,2013-01-17 02:56:00
6:16 PM,33.8,30.2,87,29.86,3.0,Calm,Calm,-,N/A,,Overcast,0,2013-01-17 03:16:00
6:36 PM,33.8,30.2,87,29.84,2.5,NW,4.6,-,N/A,,Overcast,320,2013-01-17 03:36:00
6:56 PM,33.8,30.2,87,29.83,4.0,NNW,6.9,-,N/A,,Overcast,340,2013-01-17 03:56:00
7:16 PM,33.8,30.2,87,29.81,5.0,NNW,3.5,-,N/A,,Overcast,330,2013-01-17 04:16:00
7:36 PM,33.8,30.2,87,29.81,3.0,NNW,6.9,-,N/A,,Overcast,330,2013-01-17 04:36:00
7:56 PM,33.8,30.2,87,29.79,4.0,Calm,Calm,-,N/A,,Overcast,0,2013-01-17 04:56:00
8:16 PM,33.8,28.4,81,29.78,5.0,Calm,Calm,-,N/A,,Overcast,0,2013-01-17 05:16:00
8:36 PM,33.8,28.4,81,29.76,5.0,Calm,Calm,-,N/A,,Overcast,0,2013-01-17 05:36:00
8:56 PM,33.8,30.2,87,29.74,9.0,Calm,Calm,-,N/A,,Overcast,0,2013-01-17 05:56:00
9:16 PM,33.8,30.2,87,29.73,10.0,Calm,Calm,-,N/A,,Overcast,0,2013-01-17 06:16:00
9:36 PM,37.4,33.8,87,29.73,10.0,SSE,12.7,-,N/A,,Overcast,150,2013-01-17 06:36:00
9:56 PM,37.4,33.8,87,29.72,10.0,SE,11.5,-,N/A,,Overcast,140,2013-01-17 06:56:00
10:16 PM,37.4,32.0,81,29.70,6.0,SE,15.0,-,N/A,,Overcast,130,2013-01-17 07:16:00
10:36 PM,37.4,33.8,87,29.69,10.0,SE,11.5,-,N/A,,Overcast,140,2013-01-17 07:36:00
10:56 PM,37.4,33.8,87,29.68,10.0,SSE,9.2,-,N/A,,Overcast,150,2013-01-17 07:56:00
11:16 PM,37.4,33.8,87,29.67,10.0,SE,11.5,-,N/A,,Overcast,140,2013-01-17 08:16:00
11:36 PM,37.4,33.8,87,29.66,10.0,SE,11.5,-,N/A,,Overcast,140,2013-01-17 08:36:00
11:56 PM,37.4,33.8,87,29.65,10.0,SE,10.4,-,N/A,,Overcast,140,2013-01-17 08:56:00